This demonstration page uses our WeatherBlox Daily Observations layout. Learn more.

Left ArrowRight Arrow

39.08367, -84.50855

Hourly Observations for July 3, 2020

Temp ( °F °C ) Dew Point ( °F °C ) Humidity (%) Winds ( mph kmh ) Pressure ( in mb ) Visibility ( mi km ) Precip ( " mm )
12:53 am 00:53 Clear 68 20 65 18.3 90 90 N N/A 30.00 1016 10 16 N/A
1:53 am 01:53 Clear 67 19.4 65 18.3 93 93 N N/A 30.00 1016 10 16 N/A
2:53 am 02:53 Clear 67 19.4 65 18.3 93 93 N N/A 29.99 1016 10 16 N/A
3:53 am 03:53 Clear 66 18.9 64 17.8 93 93 N N/A 30.00 1016 8 13 N/A
4:53 am 04:53 Clear with Mist and Fog 66 18.9 64 17.8 93 93 NE 3 6 30.01 1016 6 10 N/A
5:53 am 05:53 Clear 65 18.3 64 17.8 97 97 N N/A 30.01 1016 8 13 N/A
6:10 am 06:10 Clear with Mist and Fog 64 17.8 63 17.2 96 96 N N/A 30.02 1017 2 2 N/A
6:33 am 06:33 Sunny 65 18.3 63 17.2 93 93 N N/A 30.02 1017 9 14 N/A
6:53 am 06:53 Sunny 65 18.3 64 17.8 97 97 N N/A 30.01 1016 7 11 N/A
7:53 am 07:53 Sunny 70 21.1 67 19.4 90 90 N N/A 30.02 1017 10 16 N/A
8:53 am 08:53 Sunny 74 23.3 69 20.6 85 85 N N/A 30.03 1017 10 16 N/A
9:53 am 09:53 Sunny 81 27.2 68 20 65 65 N N/A 30.03 1017 10 16 N/A
10:53 am 10:53 Sunny 85 29.4 67 19.4 55 55 N N/A 30.02 1017 10 16 N/A
11:53 am 11:53 Partly Cloudy 87 30.6 66 18.9 50 50 N N/A 30.01 1016 10 16 N/A
12:53 pm 12:53 Mostly Cloudy 89 31.7 63 17.2 42 42 N N/A 30.01 1016 10 16 N/A
1:53 pm 13:53 Partly Cloudy 89 31.7 64 17.8 43 43 E 6 9 30.00 1016 10 16 N/A
2:53 pm 14:53 Partly Cloudy 89 31.7 63 17.2 42 42 N N/A 29.98 1015 10 16 N/A
3:53 pm 15:53 Mostly Sunny 91 32.8 61 16.1 37 37 N N/A 29.97 1015 10 16 N/A
4:53 pm 16:53 Mostly Sunny 90 32.2 60 15.6 37 37 NNE 3 6 29.95 1014 10 16 N/A
5:53 pm 17:53 Sunny 90 32.2 63 17.2 41 41 NE 5 7 29.94 1014 10 16 N/A
6:53 pm 18:53 Partly Cloudy 85 29.4 72 22.2 65 65 N N/A 29.93 1014 10 16 N/A
7:53 pm 19:53 Sunny 84 28.9 73 22.8 70 70 N N/A 29.92 1013 10 16 N/A
8:53 pm 20:53 Sunny 78 25.6 71 21.7 79 79 S 3 6 29.93 1014 10 16 N/A
9:53 pm 21:53 Clear 74 23.3 69 20.6 85 85 N N/A 29.95 1014 10 16 N/A
10:53 pm 22:53 Clear 72 22.2 68 20 87 87 N N/A 29.97 1015 10 16 N/A
11:53 pm 23:53 Clear 71 21.7 67 19.4 87 87 NE 3 6 29.98 1015 10 16 N/A

Powered by AerisWeather